Terminal Aerodrome Forecast
Issued by NWS Anchorage, AK

Home | Current Version | Previous Version | Text Only | Print | Product List | Glossary On
Versions: 1 2 3 4 5 6 7 8 9 10 11 12 13 14 15 16 17 18 19 20 21 22 23 24 25 26 27 28 29 30
000
FTAK31 PANC 180214 AAA
TAFANC
TAF AMD
PANC 180214Z 1802/1906 VRB03KT P6SM VCFG SCT002
      TEMPO 1802/1804 1SM BR BKN002
     FM180800 36011KT P6SM SKC=

USA.gov is the U.S. government's official web portal to all federal, state and local government web resources and services.